Regional Weather Roundup
Issued by NWS

Home | Current Version | Previous Version | Graphics & Text | Print | Product List | Glossary On
Versions: 1 2 3 4 5 6 7 8 9 10 11 12 13 14 15 16 17 18 19 20 21 22 23 24 25 26 27 28 29 30 31 32 33 34 35 36 37 38 39 40 41 42 43 44 45 46 47 48 49 50
000
ASUS43 KMPX 030810
RWRMN
WEATHER ROUNDUP FOR MINNESOTA
NATIONAL WEATHER SERVICE TWIN CITIES/CHANHASSEN MN
200 AM CST TUE MAR 03 2015


NOTE: "FAIR" INDICATES FEW OR NO CLOUDS BELOW 12,000 FEET WITH NO
SIGNIFICANT WEATHER AND/OR OBSTRUCTIONS TO VISIBILITY. N/A MEANS
CURRENT SKY AND/OR WEATHER CONDITIONS ARE NOT AVAILABLE.

MNZ060>063-068>070-030900-
   Twin Cities Metro

CITY           SKY/WX    TMP DP  RH WIND       PRES   REMARKS
TWIN CITIES    CLOUDY    22  11  62 SE8       29.94F WCI  12
ST PAUL        CLOUDY    22  11  62 MISG      29.96F
BLAINE         CLOUDY    25  14  63 SE10      29.92F WCI  15
LAKEVILLE      CLOUDY    19  12  73 SE8       29.95F WCI   9
EDEN PRAIRIE   CLOUDY    22  11  62 SE10      29.93F WCI  11
SOUTH ST PAUL  CLOUDY    23  12  63 SE6       29.95F WCI  15
LAKE ELMO      CLOUDY    23  12  63 SE8       29.96F WCI  14
$$
MNZ001>005-007-008-013>017-022>024-027-028-030900-
   Northwest Minnesota

CITY           SKY/WX    TMP DP  RH WIND       PRES   REMARKS
BEMIDJI        CLOUDY    23  17  77 S12       29.74F WCI  12
HALLOCK        CLOUDY    21  18  86 SW13      29.72S WCI   9
ROSEAU         CLOUDY    27  19  74 SW17      29.69S WCI  14
WARROAD        CLOUDY    25  18  74 SW16G23   29.68F WCI  12
THIEF RVR FALL CLOUDY    25  21  86 SW20      29.71F WCI  11
CROOKSTON      CLOUDY    25  19  80 SW14      29.75F WCI  13
FOSSTON        CLOUDY    25  19  80 S23G30    29.72S WCI  10
DETROIT LAKES  CLOUDY    28  23  80 S14       29.75F WCI  17
MOORHEAD       CLOUDY    27  25  93 S17G24    29.74F WCI  14
PARK RAPIDS    CLOUDY    24  18  77 S13       29.77F WCI  12
MAHNOMEN       FAIR      26  21  82 S17G23    29.72F WCI  12
$$
MNZ006-009>011-018-025>026-030900-
   North Central Minnesota

CITY           SKY/WX    TMP DP  RH WIND       PRES   REMARKS
BAUDETTE       MOCLDY    23  14  68 S14       29.69F WCI  11
FLAG ISLAND    CLOUDY    19  16  86 S12       29.67F WCI   7
INTL FALLS     CLOUDY    24  11  57 S9G18     29.74F WCI  14
WASKISH        MOCLDY    25  16  68 S10       29.72F WCI  15
BIG FORK       CLOUDY    23  12  63 S14G21    29.77F WCI  11
LONGVILLE      CLOUDY    21  14  73 S12G18    29.80F WCI   9
GRAND RAPIDS   CLOUDY    21  10  63 S18G24    29.80F WCI   6
CRANE LAKE     CLOUDY    21   7  53 S12G18    29.80F WCI   9
ORR            CLOUDY    21   7  53 S15G21    29.76F WCI   8
COOK           CLOUDY    21   9  58 S9G17     29.80F WCI  11
WALKER         CLOUDY    22  16  75 S7        29.76F WCI  14
$$
MNZ012-019>021-037-030900-
   Northeast Minnesota

CITY           SKY/WX    TMP DP  RH WIND       PRES   REMARKS
DULUTH         CLOUDY    20   5  52 S15       29.87F WCI   6
ELY            CLOUDY    21   5  49 S12G23    29.80F WCI   9
HIBBING        CLOUDY    21   6  52 VRB7G20   29.83F WCI  12
EVELETH        MOCLDY    21   9  58 S12       29.85F WCI   9
DULUTH HARBOR  CLOUDY    23   9  54 S3        29.94F
TWO HARBORS    CLOUDY    25   9  50 S10G16      N/A  WCI  15
SILVER BAY     CLOUDY    21   9  58 S8        29.88F WCI  12
GRAND MARAIS     N/A     27  15  61 SW18      29.94F WCI  14
G MARAIS ARPRT CLOUDY    18   7  62 S7        29.85F WCI   8
$$
MNZ029>031-032-039>041-046>048-054>057-064-030900-
   West Central Minnesota

CITY           SKY/WX    TMP DP  RH WIND       PRES   REMARKS
FERGUS FALLS   CLOUDY    25  19  80 S18       29.80F WCI  11
WHEATON        MIX PCPN  23  19  86 SE18      29.78F WCI   9
MORRIS         CLOUDY    25  21  86 SE17      29.79F FOG     WCI  11
ALEXANDRIA     LGT SNOW  23  19  85 S18       29.81F FOG     WCI   9
ELBOW LAKE     LGT SNOW  24  21  87 S22G30    29.77F WCI   9
GLENWOOD       LGT SNOW  21  19  93 S16       29.82F WCI   7
APPLETON       CLOUDY    27  21  80 SE12      29.80F WCI  16
BENSON         LGT SNOW  25  21  86 S13       29.82F WCI  13
ORTONVILLE     MIX PCPN  25  21  86 SE12G18   29.78F WCI  14
MADISON        CLOUDY    27  21  80 SE14      29.81F WCI  15
WILLMAR        LGT SNOW  23  19  86 SE13      29.87F WCI  11
$$
MNZ033>034-036-042>043-049>051-058-059-030900-
   Central Minnesota

CITY           SKY/WX    TMP DP  RH WIND       PRES   REMARKS
ST CLOUD       CLOUDY    21  15  78 S9        29.89F WCI  11
SAUK CENTRE    LGT SNOW  21  19  90 S10       29.85F WCI  10
PAYNESVILLE    LGT SNOW  19  17  93 E10G17    29.87F WCI   7
AITKIN         CLOUDY    23  12  63 S12G17    29.84F WCI  12
PINE RIVER     CLOUDY    21  16  79 S10       29.85F WCI  10
STAPLES        CLOUDY    21  16  79 S15       29.81F WCI   8
LITTLE FALLS   FLURRIES  23  16  74 S7        29.87F WCI  15
LITCHFIELD     CLOUDY    23  16  74 SE8       29.88F WCI  14
BUFFALO        CLOUDY    23  13  66 SE8       29.92F WCI  13
MAPLE LAKE     CLOUDY    23  16  73 SE6       29.90F WCI  16
$$
MNZ037-044-045-052-053-030900-
   East Central Minnesota

CITY           SKY/WX    TMP DP  RH WIND       PRES   REMARKS
PRINCETON      CLOUDY    21  18  86 SE8       29.89F WCI  12
MORA           FLURRIES  21  14  73 S7        29.92F WCI  13
CAMBRIDGE      MOCLDY    21  14  73 SE6       29.91F WCI  14
RUSH CITY      CLOUDY    20  16  83 S9        29.94F WCI   9
MOOSE LAKE     CLOUDY    21   9  58 CALM      29.88F
HINCKLEY       CLOUDY    21  14  73 S8        29.92F WCI  12
CLOQUET        CLOUDY    19   7  58 S9        29.88F WCI   9
MCGREGOR       CLOUDY    23  12  63 S10       29.87F WCI  12
$$
MNZ071>073-080-081-089-090-097-098-030900-
   Southwest Minnesota

CITY           SKY/WX    TMP DP  RH WIND       PRES   REMARKS
MONTEVIDEO     CLOUDY    25  21  86 S12       29.83F WCI  14
GRANITE FALLS  CLOUDY    24  20  85 SE13G18   29.85F WCI  12
CANBY          CLOUDY    28  21  74 S10       29.80F WCI  19
MARSHALL       CLOUDY    25  18  74 S12       29.83F WCI  14
REDWOOD FALLS  CLOUDY    23  18  81 SE15      29.86F WCI  10
OLIVIA         MOCLDY    21  19  93 SE9       29.86F WCI  11
PIPESTONE      CLOUDY    25  19  80 S15       29.77F WCI  12
WINDOM         CLOUDY    23  19  86 SE9       29.83F WCI  13
WORTHINGTON    CLOUDY    23  16  74 S12       29.82F WCI  12
JACKSON        CLOUDY    25  19  80 SE10      29.83F WCI  15
TRACY          CLOUDY    26  21  82 S12       29.82F WCI  15
SLAYTON        CLOUDY    24  19  80 SE12      29.80F WCI  13
$$
MNZ065>067-074>077-082>085-091>093-030900-
   South Central Minnesota

CITY           SKY/WX    TMP DP  RH WIND       PRES   REMARKS
MANKATO        CLOUDY    23  16  74 SE14      29.90F WCI  11
NEW ULM        CLOUDY    21  16  79 SE10      29.88F WCI  10
ST JAMES       CLOUDY    25  19  80 SE13      29.88F WCI  13
FAIRMONT       CLOUDY    23  18  80 SE14      29.85F WCI  11
GLENCOE        CLOUDY    24  17  75 SE8       29.90F WCI  14
FARIBAULT      CLOUDY    23  16  74 SE9       29.93F WCI  13
OWATONNA       CLOUDY    23  16  74 SE13      29.91F WCI  11
WASECA         CLOUDY    21  16  79 SE13      29.93F WCI   9
ALBERT LEA     CLOUDY    21  18  86 SE12      29.90F WCI   9
$$
MNZ078>079-086>088-094>096-030900-
   Southeast Minnesota

CITY           SKY/WX    TMP DP  RH WIND       PRES   REMARKS
ROCHESTER      CLOUDY    21  13  71 SE13      29.94F WCI   9
RED WING       CLOUDY    23  12  63 SE7       29.97F WCI  15
STANTON        CLOUDY    24  14  66 SE6       29.93F WCI  17
DODGE CENTER   CLOUDY    21  18  86 SE16      29.91F WCI   7
WINONA         CLOUDY    25  14  63 SE8       30.02F WCI  16
AUSTIN         CLOUDY    21  16  79 SE10      29.92F WCI  10
PRESTON        CLOUDY    21  14  75 SE9       29.96F WCI  11
$$
ABBREVIATIONS USED IN REMARKS
   TC - TEMPERATURES IN CELSIUS
  WCI - WIND CHILL INDEX
   HX - HEAT INDEX
  VSB - VISIBILITY
$$


USA.gov is the U.S. government's official web portal to all federal, state and local government web resources and services.